Location: Praha
(50.0830°N, 14.4670°E)
Time: 00:12:08
(UTC+02:00)

ISS - Pass Details

Date: 26 October 2020
Orbit: 417 x 420 km, 51.6° (Epoch: 23 October)

Event Time Altitude Azimuth Distance (km) Brightness Sun altitude
Exits shadow 05:07:10 17° 209° (SSW) 1,137 -1.8 -15.8°
Maximum altitude 05:09:18 36° 149° (SSE) 675 -2.5 -15.5°
Drops below altitude 10° 05:12:26 10° 81° (E) 1,498 0.4 -15.0°
Sets 05:14:37 0° 73° (ENE) 2,365 1.5 -14.6°
